| time (UTC) | temp C | wind direction | speed KPH | gust KPH | rain 1hr cm | rain 24hr cm | rain mn cm | humidity % | barometer mb |
| 20260505193038 | 29 | 98 | 0.0 | 9.7 | 0.00 | 0.03 | 0.03 | 38 | 1015.6 |
| 20260505192522 | 29 | 111 | 1.6 | 11.3 | 0.00 | 0.03 | 0.03 | 36 | 1015.7 |
| 20260505192021 | 30 | 109 | 0.0 | 11.3 | 0.00 | 0.03 | 0.03 | 36 | 1015.7 |
| 20260505191536 | 30 | 124 | 3.2 | 11.3 | 0.00 | 0.03 | 0.03 | 35 | 1015.8 |
| 20260505191021 | 30 | 0 | 1.6 | 11.3 | 0.00 | 0.03 | 0.03 | 37 | 1016.0 |
| 20260505190523 | 30 | 0 | 1.6 | 8.0 | 0.00 | 0.03 | 0.03 | 36 | 1016.1 |
| 20260505190044 | 30 | 268 | 0.0 | 8.0 | 0.00 | 0.03 | 0.03 | 36 | 1016.2 |
| 20260505185521 | 30 | 231 | 0.0 | 6.4 | 0.00 | 0.03 | 0.03 | 38 | 1016.3 |
| 20260505185022 | 29 | 288 | 1.6 | 6.4 | 0.00 | 0.03 | 0.03 | 37 | 1016.5 |
| 20260505184536 | 30 | 94 | 0.0 | 6.4 | 0.00 | 0.03 | 0.03 | 39 | 1016.7 |
| 20260505184021 | 29 | 240 | 0.0 | 14.5 | 0.00 | 0.03 | 0.03 | 39 | 1016.8 |
| 20260505183518 | 29 | 244 | 0.0 | 14.5 | 0.00 | 0.03 | 0.03 | 39 | 1016.8 |
| 20260505183043 | 29 | 0 | 1.6 | 14.5 | 0.00 | 0.03 | 0.03 | 37 | 1016.8 |
| 20260505182521 | 29 | 0 | 0.0 | 11.3 | 0.00 | 0.03 | 0.03 | 38 | 1016.8 |
| 20260505182019 | 28 | 263 | 3.2 | 11.3 | 0.00 | 0.03 | 0.03 | 39 | 1016.8 |
| 20260505181532 | 28 | 269 | 0.0 | 9.7 | 0.00 | 0.03 | 0.03 | 41 | 1016.8 |
| 20260505181023 | 28 | 0 | 0.0 | 9.7 | 0.00 | 0.03 | 0.03 | 43 | 1016.9 |
| 20260505180520 | 28 | 77 | 1.6 | 16.1 | 0.00 | 0.03 | 0.03 | 41 | 1016.7 |
| 20260505180037 | 28 | 0 | 1.6 | 16.1 | 0.00 | 0.03 | 0.03 | 41 | 1016.8 |
| 20260505175520 | 27 | 0 | 1.6 | 12.9 | 0.00 | 0.03 | 0.03 | 41 | 1016.7 |
| 20260505175019 | 27 | 0 | 0.0 | 12.9 | 0.00 | 0.03 | 0.03 | 43 | 1016.6 |
| 20260505174536 | 27 | 140 | 3.2 | 12.9 | 0.00 | 0.03 | 0.03 | 41 | 1016.6 |
| 20260505174022 | 27 | 294 | 0.0 | 12.9 | 0.00 | 0.03 | 0.03 | 42 | 1016.7 |
| 20260505173519 | 27 | 0 | 0.0 | 6.4 | 0.00 | 0.03 | 0.03 | 41 | 1016.8 |
| 20260505173043 | 27 | 0 | 0.0 | 6.4 | 0.00 | 0.03 | 0.03 | 41 | 1016.9 |
| 20260505172524 | 27 | 0 | 0.0 | 9.7 | 0.00 | 0.03 | 0.03 | 44 | 1016.8 |
| 20260505172020 | 27 | 231 | 0.0 | 11.3 | 0.00 | 0.03 | 0.03 | 43 | 1017.0 |
| 20260505171536 | 27 | 0 | 0.0 | 11.3 | 0.00 | 0.03 | 0.03 | 42 | 1017.1 |
| 20260505171025 | 27 | 0 | 1.6 | 11.3 | 0.00 | 0.03 | 0.03 | 46 | 1017.1 |
| 20260505170521 | 27 | 92 | 0.0 | 11.3 | 0.00 | 0.03 | 0.03 | 46 | 1017.3 |
| 20260505170035 | 27 | 0 | 0.0 | 9.7 | 0.00 | 0.03 | 0.03 | 46 | 1017.5 |
| 20260505165519 | 27 | 0 | 1.6 | 9.7 | 0.00 | 0.03 | 0.03 | 43 | 1017.4 |
| 20260505165019 | 27 | 0 | 0.0 | 9.7 | 0.00 | 0.03 | 0.03 | 46 | 1017.5 |
| 20260505164538 | 27 | 87 | 3.2 | 9.7 | 0.00 | 0.03 | 0.03 | 42 | 1017.6 |
| 20260505164021 | 27 | 93 | 0.0 | 6.4 | 0.00 | 0.03 | 0.03 | 44 | 1017.7 |
| 20260505163519 | 27 | 0 | 1.6 | 6.4 | 0.00 | 0.03 | 0.03 | 45 | 1017.6 |
| 20260505163035 | 27 | 0 | 0.0 | 6.4 | 0.00 | 0.03 | 0.03 | 48 | 1017.6 |
| 20260505162521 | 27 | 0 | 0.0 | 8.0 | 0.00 | 0.03 | 0.03 | 45 | 1017.8 |
| 20260505162020 | 27 | 278 | 0.0 | 8.0 | 0.00 | 0.03 | 0.03 | 48 | 1017.8 |
| 20260505161539 | 27 | 0 | 0.0 | 9.7 | 0.00 | 0.03 | 0.03 | 49 | 1017.8 |
| 20260505161019 | 27 | 0 | 1.6 | 9.7 | 0.00 | 0.03 | 0.03 | 49 | 1018.0 |
| 20260505160520 | 27 | 0 | 1.6 | 8.0 | 0.00 | 0.03 | 0.03 | 49 | 1018.1 |
| 20260505153045 | 26 | 0 | 0.0 | 8.0 | 0.00 | 0.03 | 0.03 | 54 | 1018.1 |
| 20260505152520 | 26 | 107 | 0.0 | 8.0 | 0.00 | 0.03 | 0.03 | 54 | 1018.1 |
| 20260505152019 | 26 | 303 | 0.0 | 8.0 | 0.00 | 0.03 | 0.03 | 53 | 1018.1 |
| 20260505151541 | 26 | 0 | 0.0 | 8.0 | 0.00 | 0.03 | 0.03 | 54 | 1018.1 |
| 20260505151019 | 26 | 0 | 1.6 | 9.7 | 0.00 | 0.03 | 0.03 | 53 | 1018.1 |
| 20260505150519 | 26 | 0 | 0.0 | 9.7 | 0.00 | 0.03 | 0.03 | 55 | 1018.0 |
| 20260505140520 | 23 | 0 | 0.0 | 3.2 | 0.00 | 0.03 | 0.03 | 65 | 1018.0 |
| 20260505125021 | 15 | 0 | 0.0 | 1.6 | 0.00 | 0.03 | 0.03 | 92 | 1017.9 |
| 20260505124538 | 15 | 0 | 0.0 | 3.2 | 0.00 | 0.03 | 0.03 | 92 | 1017.9 |
| 20260505124022 | 14 | 0 | 0.0 | 3.2 | 0.00 | 0.03 | 0.03 | 93 | 1017.8 |
| 20260505123525 | 13 | 0 | 0.0 | 1.6 | 0.00 | 0.03 | 0.03 | 93 | 1017.8 |
| 20260505123039 | 13 | 0 | 0.0 | 3.2 | 0.00 | 0.03 | 0.03 | 92 | 1017.8 |
| 20260505122521 | 13 | 0 | 0.0 | 3.2 | 0.00 | 0.03 | 0.03 | 93 | 1017.8 |
| 20260505122023 | 13 | 0 | 0.0 | 0.0 | 0.00 | 0.03 | 0.03 | 92 | 1017.8 |
| 20260505121540 | 12 | 0 | 0.0 | 0.0 | 0.00 | 0.03 | 0.03 | 92 | 1017.8 |
| 20260505121021 | 12 | 0 | 0.0 | 0.0 | 0.00 | 0.03 | 0.03 | 92 | 1017.9 |
| 20260505120518 | 12 | 0 | 0.0 | 0.0 | 0.00 | 0.03 | 0.03 | 92 | 1017.8 |
| 20260505120046 | 12 | 0 | 0.0 | 0.0 | 0.00 | 0.03 | 0.03 | 91 | 1017.8 |
| 20260505115520 | 12 | 0 | 0.0 | 0.0 | 0.00 | 0.03 | 0.03 | 91 | 1017.8 |
| 20260505115020 | 12 | 0 | 0.0 | 0.0 | 0.00 | 0.03 | 0.03 | 90 | 1017.8 |
| 20260505114535 | 11 | 0 | 0.0 | 0.0 | 0.00 | 0.03 | 0.03 | 90 | 1017.8 |
| 20260505114021 | 11 | 0 | 0.0 | 0.0 | 0.00 | 0.03 | 0.03 | 89 | 1017.7 |
| 20260505113521 | 11 | 0 | 0.0 | 0.0 | 0.00 | 0.03 | 0.03 | 89 | 1017.7 |
| 20260505113035 | 11 | 0 | 0.0 | 0.0 | 0.00 | 0.03 | 0.03 | 88 | 1017.7 |
| 20260505112522 | 11 | 0 | 0.0 | 0.0 | 0.00 | 0.03 | 0.03 | 88 | 1017.7 |
| 20260505112020 | 11 | 0 | 0.0 | 0.0 | 0.00 | 0.03 | 0.03 | 87 | 1017.7 |
| 20260505111538 | 11 | 0 | 0.0 | 0.0 | 0.00 | 0.03 | 0.03 | 87 | 1017.7 |
| 20260505111023 | 11 | 0 | 0.0 | 0.0 | 0.00 | 0.03 | 0.03 | 87 | 1017.7 |
| 20260505110518 | 11 | 0 | 0.0 | 0.0 | 0.00 | 0.03 | 0.03 | 87 | 1017.6 |
| 20260505102024 | 11 | 0 | 0.0 | 0.0 | 0.00 | 0.03 | 0.03 | 85 | 1017.1 |
| 20260505101541 | 12 | 0 | 0.0 | 0.0 | 0.00 | 0.03 | 0.03 | 85 | 1017.3 |
| 20260505101019 | 12 | 0 | 0.0 | 0.0 | 0.00 | 0.03 | 0.03 | 85 | 1017.1 |
| 20260505100521 | 12 | 0 | 0.0 | 0.0 | 0.00 | 0.03 | 0.03 | 85 | 1016.9 |
| 20260505100040 | 12 | 0 | 0.0 | 0.0 | 0.00 | 0.03 | 0.03 | 85 | 1016.8 |
| 20260505095519 | 12 | 0 | 0.0 | 0.0 | 0.00 | 0.03 | 0.03 | 85 | 1016.8 |
| 20260505095021 | 12 | 0 | 0.0 | 0.0 | 0.00 | 0.03 | 0.03 | 85 | 1016.9 |
| 20260505094536 | 12 | 0 | 0.0 | 0.0 | 0.00 | 0.03 | 0.03 | 85 | 1016.8 |
| 20260505094020 | 12 | 0 | 0.0 | 0.0 | 0.00 | 0.03 | 0.03 | 84 | 1016.8 |
| 20260505093523 | 12 | 0 | 0.0 | 0.0 | 0.00 | 0.03 | 0.03 | 84 | 1016.8 |
| 20260505093036 | 12 | 0 | 0.0 | 0.0 | 0.00 | 0.03 | 0.03 | 84 | 1016.8 |
| 20260505092521 | 12 | 0 | 0.0 | 0.0 | 0.00 | 0.03 | 0.03 | 84 | 1016.8 |
| 20260505092020 | 12 | 0 | 0.0 | 0.0 | 0.00 | 0.03 | 0.03 | 84 | 1016.7 |
| 20260505091538 | 12 | 0 | 0.0 | 0.0 | 0.00 | 0.03 | 0.03 | 84 | 1016.8 |
| 20260505091020 | 12 | 0 | 0.0 | 0.0 | 0.00 | 0.03 | 0.03 | 84 | 1016.8 |
| 20260505090518 | 12 | 0 | 0.0 | 0.0 | 0.00 | 0.03 | 0.03 | 84 | 1016.7 |
| 20260505090036 | 12 | 0 | 0.0 | 0.0 | 0.00 | 0.03 | 0.03 | 84 | 1016.8 |
| 20260505085522 | 12 | 0 | 0.0 | 0.0 | 0.00 | 0.03 | 0.03 | 84 | 1016.7 |
| 20260505085021 | 12 | 0 | 0.0 | 0.0 | 0.00 | 0.03 | 0.03 | 84 | 1016.8 |
| 20260505084543 | 12 | 0 | 0.0 | 0.0 | 0.00 | 0.03 | 0.03 | 83 | 1016.6 |
| 20260505084020 | 12 | 0 | 0.0 | 0.0 | 0.00 | 0.03 | 0.03 | 82 | 1016.6 |
| 20260505083520 | 12 | 0 | 0.0 | 0.0 | 0.00 | 0.03 | 0.03 | 82 | 1016.6 |
| 20260505083037 | 12 | 0 | 0.0 | 0.0 | 0.00 | 0.03 | 0.03 | 82 | 1016.7 |
| 20260505082519 | 12 | 0 | 0.0 | 0.0 | 0.00 | 0.03 | 0.03 | 82 | 1016.6 |
| 20260505082021 | 12 | 0 | 0.0 | 0.0 | 0.00 | 0.03 | 0.03 | 81 | 1016.6 |
| 20260505081536 | 12 | 0 | 0.0 | 0.0 | 0.00 | 0.03 | 0.03 | 81 | 1016.6 |
| 20260505081018 | 13 | 0 | 0.0 | 0.0 | 0.00 | 0.03 | 0.03 | 81 | 1016.6 |
| 20260505080521 | 13 | 0 | 0.0 | 0.0 | 0.00 | 0.03 | 0.03 | 80 | 1016.5 |
| 20260505080037 | 13 | 0 | 0.0 | 0.0 | 0.00 | 0.03 | 0.03 | 80 | 1016.5 |
| 20260505075521 | 13 | 0 | 0.0 | 0.0 | 0.00 | 0.03 | 0.03 | 80 | 1016.4 |
| 20260505075023 | 13 | 0 | 0.0 | 0.0 | 0.00 | 0.03 | 0.03 | 80 | 1016.3 |
| 20260505074536 | 13 | 0 | 0.0 | 0.0 | 0.00 | 0.03 | 0.03 | 80 | 1016.3 |
| 20260505074020 | 13 | 0 | 0.0 | 0.0 | 0.00 | 0.03 | 0.03 | 80 | 1016.2 |
| 20260505073520 | 13 | 0 | 0.0 | 0.0 | 0.00 | 0.03 | 0.03 | 80 | 1016.2 |
| 20260505073043 | 13 | 0 | 0.0 | 0.0 | 0.00 | 0.03 | 0.03 | 80 | 1016.3 |
| 20260505072521 | 13 | 0 | 0.0 | 0.0 | 0.00 | 0.03 | 0.03 | 79 | 1016.4 |
| 20260505072020 | 13 | 0 | 0.0 | 0.0 | 0.00 | 0.03 | 0.03 | 79 | 1016.3 |
| 20260505071536 | 13 | 0 | 0.0 | 0.0 | 0.00 | 0.03 | 0.03 | 79 | 1016.3 |
| 20260505071020 | 13 | 0 | 0.0 | 0.0 | 0.00 | 0.03 | 0.03 | 79 | 1016.2 |
| 20260505070521 | 13 | 0 | 0.0 | 0.0 | 0.00 | 0.03 | 0.03 | 79 | 1016.2 |
| 20260505070045 | 13 | 0 | 0.0 | 0.0 | 0.00 | 0.03 | 0.03 | 78 | 1016.3 |
| 20260505065520 | 13 | 0 | 0.0 | 0.0 | 0.00 | 0.03 | 0.03 | 78 | 1016.3 |
| 20260505065021 | 13 | 0 | 0.0 | 0.0 | 0.00 | 0.03 | 0.03 | 78 | 1016.3 |
| 20260505064536 | 13 | 0 | 0.0 | 0.0 | 0.00 | 0.03 | 0.03 | 78 | 1016.4 |
| 20260505064020 | 13 | 0 | 0.0 | 0.0 | 0.00 | 0.03 | 0.03 | 78 | 1016.3 |
| 20260505063520 | 13 | 0 | 0.0 | 0.0 | 0.00 | 0.03 | 0.03 | 77 | 1016.3 |
| 20260505063036 | 13 | 0 | 0.0 | 0.0 | 0.00 | 0.03 | 0.03 | 76 | 1016.4 |
| 20260505062521 | 13 | 0 | 0.0 | 0.0 | 0.00 | 0.03 | 0.03 | 76 | 1016.4 |
| 20260505062020 | 14 | 0 | 0.0 | 0.0 | 0.00 | 0.03 | 0.03 | 76 | 1016.5 |
| 20260505061540 | 14 | 0 | 0.0 | 0.0 | 0.00 | 0.03 | 0.03 | 75 | 1016.6 |
| 20260505061020 | 14 | 0 | 0.0 | 0.0 | 0.00 | 0.03 | 0.03 | 75 | 1016.6 |
| 20260505060523 | 14 | 0 | 0.0 | 0.0 | 0.00 | 0.03 | 0.03 | 74 | 1016.7 |
| 20260505060035 | 14 | 0 | 0.0 | 0.0 | 0.00 | 0.03 | 0.03 | 74 | 1016.7 |
| 20260505055521 | 14 | 0 | 0.0 | 0.0 | 0.00 | 0.03 | 0.03 | 73 | 1016.8 |
| 20260505055020 | 14 | 0 | 0.0 | 0.0 | 0.00 | 0.03 | 0.03 | 73 | 1016.8 |
| 20260505054539 | 15 | 0 | 0.0 | 0.0 | 0.00 | 0.03 | 0.03 | 72 | 1016.8 |
| 20260505054017 | 15 | 0 | 0.0 | 0.0 | 0.00 | 0.03 | 0.03 | 72 | 1016.8 |
| 20260505053522 | 15 | 0 | 0.0 | 0.0 | 0.00 | 0.03 | 0.03 | 72 | 1016.8 |
| 20260505053036 | 15 | 0 | 0.0 | 0.0 | 0.00 | 0.03 | 0.03 | 71 | 1016.8 |
| 20260505052519 | 15 | 0 | 0.0 | 0.0 | 0.00 | 0.03 | 0.03 | 71 | 1016.8 |
| 20260505052020 | 15 | 0 | 0.0 | 0.0 | 0.00 | 0.03 | 0.03 | 70 | 1016.9 |
| 20260505051536 | 15 | 0 | 0.0 | 0.0 | 0.03 | 0.03 | 0.03 | 69 | 1016.9 |
| 20260505051021 | 15 | 0 | 0.0 | 0.0 | 0.03 | 0.03 | 0.03 | 68 | 1016.9 |
| 20260505050523 | 15 | 0 | 0.0 | 0.0 | 0.03 | 0.03 | 0.03 | 68 | 1017.0 |
| 20260505041549 | 16 | 0 | 0.0 | 0.0 | 0.00 | 0.00 | 0.00 | 65 | 1016.9 |
| 20260505041022 | 17 | 0 | 0.0 | 0.0 | 0.00 | 0.00 | 0.00 | 64 | 1017.0 |
| 20260505040523 | 17 | 0 | 0.0 | 0.0 | 0.00 | 0.00 | 0.00 | 64 | 1017.1 |
| 20260505040047 | 17 | 0 | 0.0 | 0.0 | 0.00 | 0.00 | 0.00 | 64 | 1017.0 |
| 20260505035520 | 17 | 0 | 0.0 | 0.0 | 0.00 | 0.00 | 0.00 | 64 | 1017.1 |
| 20260505035020 | 17 | 0 | 0.0 | 0.0 | 0.00 | 0.00 | 0.00 | 64 | 1017.1 |
| 20260505034539 | 17 | 0 | 0.0 | 0.0 | 0.00 | 0.00 | 0.00 | 63 | 1017.1 |
| 20260505034020 | 17 | 0 | 0.0 | 0.0 | 0.00 | 0.00 | 0.00 | 64 | 1017.1 |
| 20260505033520 | 17 | 0 | 0.0 | 0.0 | 0.00 | 0.00 | 0.00 | 63 | 1017.1 |
| 20260505033037 | 17 | 0 | 0.0 | 0.0 | 0.00 | 0.00 | 0.00 | 64 | 1017.2 |
| 20260505032521 | 17 | 0 | 0.0 | 0.0 | 0.00 | 0.00 | 0.00 | 63 | 1017.1 |
| 20260505032020 | 17 | 0 | 0.0 | 0.0 | 0.00 | 0.00 | 0.00 | 63 | 1017.2 |
| 20260505031542 | 17 | 0 | 0.0 | 0.0 | 0.00 | 0.00 | 0.00 | 63 | 1017.1 |
| 20260505031021 | 17 | 0 | 0.0 | 1.6 | 0.00 | 0.00 | 0.00 | 62 | 1017.1 |
| 20260505030519 | 18 | 0 | 0.0 | 1.6 | 0.00 | 0.00 | 0.00 | 63 | 1017.2 |
| 20260505030037 | 18 | 0 | 0.0 | 0.0 | 0.00 | 0.00 | 0.00 | 62 | 1017.2 |
| 20260505025521 | 18 | 0 | 0.0 | 0.0 | 0.00 | 0.00 | 0.00 | 61 | 1017.3 |
| 20260505025022 | 18 | 0 | 0.0 | 1.6 | 0.00 | 0.00 | 0.00 | 61 | 1017.2 |
| 20260505024538 | 18 | 0 | 0.0 | 1.6 | 0.00 | 0.00 | 0.00 | 61 | 1017.3 |
| 20260505024022 | 18 | 0 | 0.0 | 0.0 | 0.00 | 0.00 | 0.00 | 61 | 1017.2 |
| 20260505023522 | 18 | 0 | 0.0 | 3.2 | 0.00 | 0.00 | 0.00 | 60 | 1017.3 |
| 20260505023038 | 18 | 0 | 0.0 | 3.2 | 0.00 | 0.00 | 0.00 | 60 | 1017.1 |
| 20260505022517 | 18 | 0 | 0.0 | 3.2 | 0.00 | 0.00 | 0.00 | 60 | 1017.1 |
| 20260505022019 | 18 | 0 | 0.0 | 3.2 | 0.00 | 0.00 | 0.00 | 60 | 1017.0 |
| 20260505021534 | 18 | 0 | 0.0 | 3.2 | 0.00 | 0.00 | 0.00 | 60 | 1016.9 |
| 20260505021018 | 18 | 0 | 0.0 | 3.2 | 0.00 | 0.00 | 0.00 | 60 | 1016.8 |
| 20260505020517 | 18 | 0 | 0.0 | 0.0 | 0.00 | 0.00 | 0.00 | 59 | 1016.8 |
| 20260505020037 | 19 | 0 | 0.0 | 0.0 | 0.00 | 0.00 | 0.00 | 58 | 1016.7 |
| 20260505015517 | 19 | 0 | 0.0 | 0.0 | 0.00 | 0.00 | 0.00 | 57 | 1016.7 |
| 20260505015017 | 19 | 0 | 0.0 | 0.0 | 0.00 | 0.00 | 0.00 | 57 | 1016.7 |
| 20260505014553 | 19 | 0 | 0.0 | 1.6 | 0.00 | 0.00 | 0.00 | 57 | 1016.6 |
| 20260505014016 | 19 | 0 | 0.0 | 1.6 | 0.00 | 0.00 | 0.00 | 57 | 1016.5 |
| 20260505013519 | 19 | 0 | 0.0 | 3.2 | 0.00 | 0.00 | 0.00 | 55 | 1016.5 |
| 20260505013037 | 19 | 0 | 0.0 | 3.2 | 0.00 | 0.00 | 0.00 | 54 | 1016.3 |
| 20260505012519 | 19 | 0 | 0.0 | 3.2 | 0.00 | 0.00 | 0.00 | 53 | 1016.3 |
| 20260505012017 | 19 | 0 | 0.0 | 3.2 | 0.00 | 0.00 | 0.00 | 53 | 1016.3 |
| 20260505011535 | 20 | 0 | 0.0 | 3.2 | 0.00 | 0.00 | 0.00 | 52 | 1016.1 |
| 20260505011017 | 20 | 0 | 0.0 | 3.2 | 0.00 | 0.00 | 0.00 | 50 | 1016.1 |
| 20260505010518 | 20 | 0 | 0.0 | 1.6 | 0.00 | 0.00 | 0.00 | 49 | 1016.1 |
| 20260505010036 | 20 | 0 | 0.0 | 0.0 | 0.00 | 0.00 | 0.00 | 48 | 1015.9 |
| 20260505005520 | 20 | 0 | 0.0 | 0.0 | 0.00 | 0.03 | 0.00 | 47 | 1015.9 |
| 20260505005021 | 21 | 0 | 0.0 | 0.0 | 0.00 | 0.03 | 0.00 | 47 | 1015.8 |
| 20260505004537 | 21 | 0 | 0.0 | 0.0 | 0.00 | 0.03 | 0.00 | 45 | 1015.7 |
| 20260505004021 | 21 | 0 | 0.0 | 0.0 | 0.00 | 0.03 | 0.00 | 45 | 1015.6 |
| 20260505003517 | 21 | 0 | 0.0 | 0.0 | 0.00 | 0.03 | 0.00 | 43 | 1015.5 |
| 20260505003038 | 22 | 0 | 0.0 | 0.0 | 0.00 | 0.03 | 0.00 | 42 | 1015.4 |
| 20260505002517 | 22 | 0 | 0.0 | 0.0 | 0.00 | 0.03 | 0.00 | 42 | 1015.3 |
| 20260505002017 | 22 | 0 | 0.0 | 0.0 | 0.00 | 0.03 | 0.00 | 41 | 1015.4 |
| 20260505001538 | 22 | 0 | 0.0 | 0.0 | 0.00 | 0.03 | 0.00 | 41 | 1015.3 |
| 20260505001020 | 23 | 0 | 0.0 | 0.0 | 0.00 | 0.03 | 0.00 | 40 | 1015.2 |
| 20260505000521 | 23 | 0 | 0.0 | 0.0 | 0.00 | 0.03 | 0.00 | 39 | 1015.2 |
| 20260505000048 | 23 | 0 | 0.0 | 1.6 | 0.00 | 0.03 | 0.00 | 39 | 1015.2 |
| 20260504235520 | 23 | 0 | 0.0 | 3.2 | 0.00 | 0.03 | 0.00 | 38 | 1015.1 |
| 20260504235022 | 23 | 0 | 0.0 | 3.2 | 0.00 | 0.03 | 0.00 | 38 | 1015.0 |
| 20260504234545 | 24 | 0 | 0.0 | 3.2 | 0.00 | 0.03 | 0.00 | 38 | 1015.0 |
| 20260504234022 | 24 | 0 | 0.0 | 4.8 | 0.00 | 0.03 | 0.00 | 37 | 1015.0 |
| 20260504233516 | 25 | 0 | 0.0 | 4.8 | 0.00 | 0.03 | 0.00 | 37 | 1015.0 |
| 20260504233043 | 25 | 0 | 0.0 | 0.0 | 0.00 | 0.03 | 0.00 | 36 | 1014.9 |
| 20260504232518 | 25 | 0 | 0.0 | 1.6 | 0.00 | 0.03 | 0.00 | 36 | 1014.9 |
| 20260504232019 | 25 | 0 | 0.0 | 1.6 | 0.00 | 0.03 | 0.00 | 35 | 1014.9 |
| 20260504231537 | 25 | 0 | 0.0 | 1.6 | 0.00 | 0.03 | 0.00 | 35 | 1014.9 |
| 20260504231021 | 25 | 0 | 0.0 | 1.6 | 0.00 | 0.03 | 0.00 | 34 | 1015.0 |
| 20260504230521 | 25 | 0 | 0.0 | 3.2 | 0.00 | 0.03 | 0.00 | 34 | 1015.0 |
| 20260504230039 | 26 | 0 | 0.0 | 3.2 | 0.00 | 0.03 | 0.00 | 34 | 1015.0 |
| 20260504225521 | 26 | 0 | 0.0 | 3.2 | 0.00 | 0.03 | 0.00 | 34 | 1015.0 |
| 20260504225021 | 26 | 0 | 0.0 | 1.6 | 0.00 | 0.03 | 0.00 | 34 | 1014.9 |
| 20260504224539 | 26 | 0 | 0.0 | 4.8 | 0.00 | 0.03 | 0.00 | 32 | 1014.9 |
| 20260504224021 | 26 | 200 | 0.0 | 4.8 | 0.00 | 0.03 | 0.00 | 32 | 1014.9 |
| 20260504223521 | 27 | 0 | 0.0 | 4.8 | 0.00 | 0.03 | 0.00 | 32 | 1014.9 |
| 20260504223053 | 27 | 0 | 0.0 | 4.8 | 0.00 | 0.03 | 0.00 | 32 | 1015.0 |
| 20260504222520 | 27 | 0 | 0.0 | 4.8 | 0.00 | 0.03 | 0.00 | 31 | 1014.9 |
| 20260504222020 | 27 | 0 | 0.0 | 4.8 | 0.00 | 0.03 | 0.00 | 30 | 1015.0 |
| 20260504221537 | 27 | 0 | 0.0 | 4.8 | 0.00 | 0.03 | 0.00 | 30 | 1015.0 |
| 20260504221019 | 27 | 125 | 0.0 | 4.8 | 0.00 | 0.03 | 0.00 | 30 | 1014.9 |
| 20260504220520 | 28 | 113 | 0.0 | 6.4 | 0.00 | 0.03 | 0.00 | 30 | 1014.9 |
| 20260504220036 | 28 | 121 | 1.6 | 6.4 | 0.00 | 0.03 | 0.00 | 29 | 1014.9 |
| 20260504215520 | 28 | 0 | 0.0 | 4.8 | 0.00 | 0.03 | 0.00 | 29 | 1014.8 |
| 20260504215021 | 28 | 0 | 0.0 | 3.2 | 0.00 | 0.03 | 0.00 | 29 | 1014.7 |
| 20260504214538 | 29 | 0 | 0.0 | 3.2 | 0.00 | 0.03 | 0.00 | 28 | 1014.7 |
| 20260504214021 | 29 | 217 | 0.0 | 3.2 | 0.00 | 0.03 | 0.00 | 29 | 1014.7 |
| 20260504213525 | 29 | 0 | 0.0 | 3.2 | 0.00 | 0.03 | 0.00 | 28 | 1014.6 |
| 20260504213049 | 28 | 0 | 0.0 | 3.2 | 0.00 | 0.03 | 0.00 | 32 | 1014.7 |
| 20260504212520 | 28 | 0 | 0.0 | 6.4 | 0.00 | 0.03 | 0.00 | 30 | 1014.7 |
| 20260504212023 | 28 | 0 | 0.0 | 6.4 | 0.00 | 0.03 | 0.00 | 30 | 1014.7 |
| 20260504211536 | 28 | 0 | 0.0 | 3.2 | 0.00 | 0.03 | 0.00 | 29 | 1014.7 |
| 20260504211020 | 28 | 0 | 0.0 | 4.8 | 0.00 | 0.03 | 0.00 | 28 | 1014.7 |
| 20260504210519 | 28 | 0 | 0.0 | 4.8 | 0.00 | 0.03 | 0.00 | 28 | 1014.7 |
| 20260504210039 | 28 | 0 | 0.0 | 14.5 | 0.00 | 0.03 | 0.00 | 29 | 1014.7 |
| 20260504205519 | 28 | 0 | 1.6 | 14.5 | 0.00 | 0.03 | 0.00 | 28 | 1014.9 |
| 20260504205019 | 28 | 0 | 0.0 | 8.0 | 0.00 | 0.03 | 0.00 | 30 | 1014.7 |
| 20260504204543 | 28 | 104 | 0.0 | 9.7 | 0.00 | 0.03 | 0.00 | 30 | 1014.7 |
| 20260504204023 | 28 | 0 | 1.6 | 9.7 | 0.00 | 0.03 | 0.00 | 28 | 1014.8 |
| 20260504203522 | 28 | 107 | 1.6 | 9.7 | 0.00 | 0.03 | 0.00 | 28 | 1014.9 |
| 20260504203046 | 28 | 0 | 0.0 | 6.4 | 0.00 | 0.03 | 0.00 | 27 | 1014.9 |
| 20260504202519 | 28 | 0 | 0.0 | 6.4 | 0.00 | 0.03 | 0.00 | 27 | 1014.9 |
| 20260504202021 | 28 | 180 | 0.0 | 6.4 | 0.00 | 0.03 | 0.00 | 27 | 1014.9 |
| 20260504201538 | 28 | 0 | 0.0 | 6.4 | 0.00 | 0.03 | 0.00 | 27 | 1015.1 |
| 20260504201023 | 28 | 77 | 1.6 | 9.7 | 0.00 | 0.03 | 0.00 | 26 | 1015.0 |
| 20260504200520 | 28 | 175 | 0.0 | 9.7 | 0.00 | 0.03 | 0.00 | 28 | 1015.1 |
| 20260504200036 | 28 | 98 | 3.2 | 9.7 | 0.00 | 0.03 | 0.00 | 27 | 1015.2 |
| 20260504195518 | 29 | 126 | 1.6 | 4.8 | 0.00 | 0.05 | 0.00 | 27 | 1015.3 |
| 20260504195021 | 29 | 88 | 0.0 | 4.8 | 0.00 | 0.05 | 0.00 | 28 | 1015.3 |
| 20260504194536 | 29 | 276 | 0.0 | 4.8 | 0.00 | 0.05 | 0.00 | 27 | 1015.4 |
| 20260504194021 | 29 | 0 | 0.0 | 6.4 | 0.00 | 0.05 | 0.00 | 30 | 1015.5 |
| 20260504193520 | 29 | 0 | 0.0 | 6.4 | 0.00 | 0.05 | 0.00 | 29 | 1015.6 |